AE7MK-13 Weather Reports


Display with metric or nautical units.
time (UTC)temp
F
wind
direction
speed
MPH
gust
MPH
rain 1hr
in
rain 24hr
in
rain mn
in
humidity
%
barometer
mb
20260503031003 62 313 0.0 3.0 0.00 0.00 0.00 38 1017.3
20260503030213 64 320 0.0 1.0 0.00 0.00 0.00 37 1017.2
20260503025003 65 328 0.0 1.0 0.00 0.00 0.00 35 1017.1
20260503024003 66 347 1.0 3.0 0.00 0.00 0.00 34 1017.1
20260503023003 66 345 1.0 3.0 0.00 0.00 0.00 35 1017.1
20260503022003 66 345 2.0 5.0 0.00 0.00 0.00 36 1017.1
20260503021212 66 347 2.0 4.0 0.00 0.00 0.00 35 1017.2
20260503020214 66 342 1.0 3.0 0.00 0.00 0.00 34 1017.1
20260503015214 66 342 0.0 3.0 0.00 0.00 0.00 33 1017.2
20260503014003 67 340 3.0 7.0 0.00 0.00 0.00 31 1017.2
20260503013003 68 325 3.0 9.0 0.00 0.00 0.00 30 1017.2
20260503012214 68 311 3.0 9.0 0.00 0.00 0.00 30 1017.2
20260503011003 68 319 2.0 8.0 0.00 0.00 0.00 31 1017.2
20260503010003 68 355 2.0 6.0 0.00 0.00 0.00 30 1017.3
20260503005214 68 350 1.0 6.0 0.00 0.00 0.00 30 1017.3
20260503004003 68 5 1.0 5.0 0.00 0.00 0.00 28 1017.4
20260503003003 69 13 1.0 6.0 0.00 0.00 0.00 29 1017.4
20260503002003 69 11 3.0 9.0 0.00 0.00 0.00 28 1017.4
20260503001003 69 22 3.0 11.0 0.00 0.00 0.00 30 1017.3
20260503000004 69 12 3.0 7.0 0.00 0.00 0.00 29 1017.5
20260502235003 69 355 3.0 10.0 0.00 0.00 0.00 29 1017.5
20260502234003 70 13 4.0 12.0 0.00 0.00 0.00 28 1017.5
20260502233213 70 8 4.0 10.0 0.00 0.00 0.00 30 1017.6
20260502232003 70 11 3.0 10.0 0.00 0.00 0.00 29 1017.7
20260502231003 69 80 2.0 7.0 0.00 0.00 0.00 30 1017.8
20260502230005 69 49 3.0 11.0 0.00 0.00 0.00 30 1017.9
20260502225003 70 82 2.0 5.0 0.00 0.00 0.00 30 1018.0
20260502224003 68 33 5.0 12.0 0.00 0.00 0.00 30 1018.2
20260502223213 69 343 3.0 6.0 0.00 0.00 0.00 28 1018.2
20260502222003 70 23 4.0 10.0 0.00 0.00 0.00 29 1018.3
20260502221003 69 348 2.0 9.0 0.00 0.00 0.00 30 1018.4
20260502220003 69 358 4.0 11.0 0.00 0.00 0.00 30 1018.5
20260502215003 68 62 5.0 12.0 0.00 0.00 0.00 32 1018.5
20260502214003 68 12 5.0 12.0 0.00 0.00 0.00 30 1018.6
20260502213003 68 10 5.0 11.0 0.00 0.00 0.00 29 1018.7
20260502212212 68 2 5.0 10.0 0.00 0.00 0.00 32 1018.8
20260502211003 68 21 4.0 11.0 0.00 0.00 0.00 31 1018.8
20260502210003 68 3 4.0 12.0 0.00 0.00 0.00 31 1018.8
20260502205003 68 11 3.0 9.0 0.00 0.00 0.00 32 1018.9
20260502204003 66 40 6.0 13.0 0.00 0.00 0.00 33 1018.9
20260502203003 67 12 4.0 11.0 0.00 0.00 0.00 32 1019.0
20260502202003 67 43 5.0 11.0 0.00 0.00 0.00 33 1019.2
20260502201003 66 30 5.0 12.0 0.00 0.00 0.00 33 1019.2
20260502200214 66 14 6.0 15.0 0.00 0.00 0.00 33 1019.2
20260502195003 67 18 5.0 16.0 0.00 0.00 0.00 33 1019.3
20260502194214 66 7 6.0 13.0 0.00 0.00 0.00 34 1019.3
20260502193214 65 360 5.0 11.0 0.00 0.00 0.00 32 1019.4
20260502192003 66 27 6.0 14.0 0.00 0.00 0.00 33 1019.4
20260502191003 66 10 6.0 12.0 0.00 0.00 0.00 34 1019.4
20260502190004 65 7 6.0 11.0 0.00 0.00 0.00 37 1019.3
20260502185003 65 358 6.0 14.0 0.00 0.00 0.00 33 1019.4
20260502184003 64 7 8.0 15.0 0.00 0.00 0.00 34 1019.3
20260502183003 64 13 8.0 17.0 0.00 0.00 0.00 35 1019.3
20260502182003 64 10 9.0 16.0 0.00 0.00 0.00 36 1019.2
20260502181213 64 7 8.0 15.0 0.00 0.00 0.00 38 1019.2
20260502180213 64 6 9.0 15.0 0.00 0.00 0.00 38 1019.1
20260502164003 61 360 8.0 14.0 0.00 0.00 0.00 40 1018.7
20260502163003 60 3 7.0 15.0 0.00 0.00 0.00 40 1018.7
20260502162003 60 5 9.0 15.0 0.00 0.00 0.00 39 1018.7
20260502161003 61 357 8.0 15.0 0.00 0.00 0.00 39 1018.7
20260502152214 60 3 4.0 9.0 0.00 0.00 0.00 44 1018.7
20260502151003 58 11 0.0 1.0 0.00 0.00 0.00 46 1018.9
20260502123003 57 9 7.0 12.0 0.00 0.00 0.00 45 1017.5
20260502122003 57 15 7.0 14.0 0.00 0.00 0.00 46 1017.5
20260502121213 56 10 8.0 14.0 0.00 0.00 0.00 47 1017.8
20260502115003 54 342 3.0 7.0 0.00 0.00 0.00 51 1018.2
20260502114003 54 325 2.0 6.0 0.00 0.00 0.00 53 1018.3
20260502113003 54 317 2.0 7.0 0.00 0.00 0.00 52 1018.4
20260502112213 55 313 2.0 9.0 0.00 0.00 0.00 51 1018.4
20260502111213 54 340 1.0 6.0 0.00 0.00 0.00 53 1018.3
20260502110003 54 347 3.0 6.0 0.00 0.00 0.00 56 1018.2
20260502105214 54 335 2.0 6.0 0.00 0.00 0.00 55 1018.2
20260502104003 54 329 2.0 6.0 0.00 0.00 0.00 54 1018.2
20260502103003 55 359 3.0 8.0 0.00 0.00 0.00 53 1018.2
20260502101003 55 297 8.0 9.0 0.00 0.00 0.00 50 1018.4
20260502091214 51 327 2.0 4.0 0.00 0.00 0.00 58 1018.1
20260502071003 49 330 4.0 6.0 0.00 0.00 0.00 60 1018.2
20260502070003 49 328 3.0 5.0 0.00 0.00 0.00 61 1018.1
20260502065003 49 336 3.0 6.0 0.00 0.00 0.00 60 1018.1
20260502064003 49 334 4.0 7.0 0.00 0.00 0.00 59 1018.1
20260502063003 50 335 5.0 6.0 0.00 0.00 0.00 58 1018.1
20260502062003 51 334 3.0 6.0 0.00 0.00 0.00 55 1018.2
20260502061003 51 332 3.0 6.0 0.00 0.00 0.00 55 1018.1
20260502060003 51 326 4.0 5.0 0.00 0.00 0.00 55 1018.0
20260502055003 50 324 4.0 6.0 0.00 0.00 0.00 57 1018.1
20260502054003 50 323 1.0 4.0 0.00 0.00 0.00 57 1018.1
20260502053003 50 334 3.0 5.0 0.00 0.00 0.00 56 1018.1
20260502052213 51 334 3.0 5.0 0.00 0.00 0.00 55 1018.1
20260502051003 51 328 3.0 6.0 0.00 0.00 0.00 55 1018.0
20260502050004 50 336 5.0 7.0 0.00 0.00 0.00 57 1018.1
20260502045212 51 335 4.0 6.0 0.00 0.00 0.00 55 1018.2
20260502044005 50 335 4.0 5.0 0.00 0.00 0.00 55 1018.2
20260502043003 50 333 4.0 6.0 0.00 0.00 0.00 56 1018.1
20260502042003 51 335 3.0 6.0 0.00 0.00 0.00 54 1018.1
20260502041003 52 335 4.0 6.0 0.00 0.00 0.00 55 1017.8
20260502040003 52 335 3.0 4.0 0.00 0.00 0.00 53 1017.8
20260502035214 53 332 3.0 5.0 0.00 0.00 0.00 52 1017.7
20260502034003 53 331 4.0 6.0 0.00 0.00 0.00 54 1017.6
20260502033003 56 326 2.0 4.0 0.00 0.00 0.00 50 1017.6
20260502032003 55 326 2.0 4.0 0.00 0.00 0.00 51 1017.5